Location: P�rn�nmaa
(61.1833°N, 23.0000°E)
Time: 18:09:45
(UTC+00:00)

Cosmos 2360 Rocket - Pass Details

Date: 08 December 2019
Orbit: 833 x 846 km, 71.0° (Epoch: 22 January)

Event Time Altitude Azimuth Distance (km) Brightness Sun altitude
Rises 14:17:10 0° 181° (S) 3,391 5.9 -6.4°
Reaches altitude 10° 14:19:48 10° 172° (S) 2,462 5.0 -6.7°
Maximum altitude 14:24:46 33° 111° (ESE) 1,397 3.1 -7.2°
Drops below altitude 10° 14:29:46 10° 49° (NE) 2,481 4.0 -7.6°
Enters shadow 14:30:00 - 48° (NE) 2,560 4.0 -7.7°
